Tracking 19249 objects as of 15-Oct-2018
HD Live streaming from Space Station
objects crossing your sky now

QBITO

Track QBITO now!
10-day predictions
QBITO is classified as:


NORAD ID: 42728
Int'l Code: 1998-067MH
Perigee: 336.6 km
Apogee: 339.7 km
Inclination: 51.6 °
Period: 91.2 minutes
Semi major axis: 6709 km
RCS: Unknown
Launch date: November 20, 1998
Source: Spain (SPN)
Launch site: TYURATAM MISSILE AND SPACE COMPLEX (TTMTR)

Uplink (MHz):
Downlink (MHz): 436.810
Beacon (MHz):
Mode: 9600bps GFSK
Call sign:
Status: Inactive

aabbcc
Your satellite tracking list
Your tracking list is empty




NASA's NSSDC Master Catalog

Two Line Element Set (TLE):
1 42728U 98067MH  18287.74878049  .00059005  00000-0  31504-3 0  9991
2 42728  51.6333 101.4369 0002306 290.5717  69.5037 15.79793699 79193
Source of the keplerian elements: AMSAT